Regional Weather Roundup
Issued by NWS Green Bay, WI

Home | Current Version | Previous Version | Text Only | Print | Product List | Glossary On
Versions: 1 2 3 4 5 6 7 8 9 10 11 12 13 14 15 16 17 18 19 20 21 22 23 24 25 26 27 28 29 30 31 32 33 34 35 36 37 38 39 40 41 42 43 44 45 46 47 48 49 50
000
ASUS43 KGRB 280411
RWRGRB

NORTH-CENTRAL AND NORTHEAST WISCONSIN REGIONAL WEATHER ROUNDUP
NATIONAL WEATHER SERVICE GREEN BAY WI
1100 PM CDT FRI MAY 27 2016

WIZ005-009-010>012-018-019-280500-
NORTH CENTRAL WISCONSIN

CITY           SKY/WX    TMP DP  RH WIND       PRES   REMARKS
IRONWOOD       CLOUDY    59  57  94 NE3       29.75F
MANITOWISH WTR NOT AVBL
ARBOR VITAE    CLOUDY    66  62  89 SE9       29.81S
EAGLE RIVER      N/A     65  63  94 SE7       29.82S
LAND O LAKES   CLOUDY    65  63  91 SE6       29.83F
RHINELANDER    CLOUDY    65  62  90 SE8       29.82S
PHILLIPS       CLOUDY    65  63  92 SE9       29.77F
ANTIGO         CLOUDY    64  64 100 SE14      29.83R FOG
TOMAHAWK       CLOUDY    64  62  94 SE3       29.80F
MERRILL        CLOUDY    65  65 100 SE7       29.80F
$$

WIZ013-073-280500-
NORTHEAST WISCONSIN

CITY           SKY/WX    TMP DP  RH WIND       PRES   REMARKS
IRON MOUNTAIN  LGT RAIN  63  61  93 SE8       29.84F
MARINETTE      LGT RAIN  60  60 100 SE5       29.85S FOG
OCONTO         CLOUDY   N/A N/A N/A E5        29.84S
$$

WIZ017-030-035>037-045-280500-
CENTRAL WISCONSIN

CITY           SKY/WX    TMP DP  RH WIND       PRES   REMARKS
MEDFORD        CLOUDY    65  65 100 SE10G17   29.78S
WAUSAU         CLOUDY    68  65  90 SE7       29.78S
MOSINEE        CLOUDY    64  64 100 SE7       29.80F
MARSHFIELD     MOCLDY    68  65  90 SE9       29.77F
WISC RAPIDS    LGT RAIN  67  64  90 SE7       29.80S FOG
STEVENS POINT  CLOUDY    65  64  99 SE7       29.81S
WAUPACA        CLOUDY    69  69  99 SE5       29.81S
SHAWANO        CLOUDY    67  65  94 CALM      29.83R FOG
CLINTONVILLE   CLOUDY    66  64  94 SE6       29.82R FOG
WAUTOMA        MOCLDY    67  67 100 SE6       29.80S
$$

WIZ038-039-048-051-280500-
FOX VALLEY

CITY           SKY/WX    TMP DP  RH WIND       PRES   REMARKS
NWS GREEN BAY  CLOUDY    65  64  97 SE5       29.82S
APPLETON       CLOUDY    66  66 100 SE8       29.81R
OSHKOSH        CLOUDY    68  66  93 SE9       29.81R
FOND DU LAC    MOCLDY    68  66  93 S7        29.82R
$$

WIZ022-050-052-280500-
EAST CENTRAL WISCONSIN

CITY           SKY/WX    TMP DP  RH WIND       PRES   REMARKS
EPHRAIM        FOG       60  60 100 SE8       29.85F VSB 3/4
STURGEON BAY   NOT AVBL
MANITOWOC      CLOUDY    61  60  97 S10       29.85F
SHEBOYGAN      MOCLDY    62  60  93 S8        29.85R FOG
$$

LMZ563-521-522-541>543-280500-
LAKESHORE

STATION/POSITION TIME  TEMP    WIND        PRES    VSBY  WAVE
                       AIR SEA DIR/SP/G                  HT/PER
                 (UTC) (F)     (DEG/KT/KT) (MB)    (MI)  (FT/S)
SHEBOYGAN LKSHOR 0400   56     170/ 12/ 12 1011.3R
KEWAUNEE LKSHORE 0300           60/  3/  4 1010.4R
ALGOMA MARINA    0317             CALM       N/A
NORTHPORT PIER   0300   55     120/  6/  7 1011.9S
N MID LAKE BUOY  0350   53 47  120/  8/ 10 1011.7F         1
SISTER BAY LKSHO 0320   59     120/  6/ 10   N/A
CHAMBERS ISLAND  0300   61     110/  4/  7 1011.5
MENOMINEE LKSHOR 0300           80/  7/  8 1009.9F
$$



USA.gov is the U.S. government's official web portal to all federal, state and local government web resources and services.